Showing default

JILIN-01 GAOFEN 3D 31, 52448

Orbit data source: Space-Track

JILIN-01 GAOFEN 3D 31, 52448 is a payload satellite owned by Changguang WJ (CN) in SSO that was launched on Thu, 05 May 2022 UTC via a CHANG ZHENG 2D launch vehicle from the Taiyaun Space Center, China (TSC). Payload-class satellites include a variety of spacecraft equipped with specific instruments for various scientific and technological missions. These include communications satellites like Starlink; space stations such as the ISS; scientific satellites like the Hubble; Earth observation satellites from companies like Planet Labs, Umbra, and HawkEye 360; GPS; miniature CubeSats for education and research; and military/defense satellites.

Loading next visibility...
Identifier
52448, 2022-048F
Orbit
SSO
Country
Flag of CNCN / PRC
Related business
Manufacturer
Changguang WJ
Mission
Operational Commercial Imaging
Bus & Motor
JL-1, Unknown motor
Mass
42 kg wet, 42 kg dry
Launch date (UTC)
2022-05-05 (4 years ago)
Launch vehicle
CHANG ZHENG 2D
Launch site
Taiyaun Space Center, China (TSC)
Object type
Payload
Rocket body
Debris
Shape & HBR
Box + 2 Pan, 0.8 m
Radar Cross Section
2.000 m², Medium (>0.1 m² and < 1m²)

Expand to show TLE details & history
Last TLE update: 7 hours ago

TLE from 7 hours ago
0 JILIN-01 GAOFEN 3D 31
1 52448U 22048F   26163.81747469  .00159453  00000-0  84525-3 0  9997
2 52448  97.5689 278.6756 0001950 209.4400 150.6758 15.80094192228894
Epoch: 2026-06-12T19:37Z
TLE epoch observation values (Epoch: 2026-06-12T19:37:09.813Z)
Latitude
0.00005°
Longitude
83.24323°
Altitude
334.481 km
Speed
7.707 km/s
True Right ascension
18h 34m 42s
True Declination
0° 00' 00"
Sunlit
Object was in full shadow at epoch
Visualization orbit readout
Latitude
Unknown
Longitude
Unknown
Altitude
Unknown
Speed
Unknown
Apparent Right ascension
Unknown
Apparent Declination
Unknown
Sunlit
N/A
Visualization observer readout
Local Sidereal Time
12:47:17
Azimuth
Unknown
Elevation
Unknown
Doppler factor
Unknown
Orbital elements
Apogee altitude
328.375 km
Perigee altitude
325.76 km
Semi-major axis
6,705.204 km
Eccentricity
0.0002
Inclination
97.5689°
RAAN
278.6756°
Arg. of periapsis
209.44°
True anomaly
150.68674°
Mean anomaly
150.6758°
Eccentric anomaly
150.68127°
Mean motion
3.95298 °/min
Orbital period
91.07 mins
BSTAR
0.00084525
Loading maneuver chart data...
Computing Atmospheric mass density...
Loading historical data...
Loading historical data...
Loading historical data...
Loading historical data...
Loading historical data...
Loading historical data...
Loading historical data...

Documentation

Showing up to 5 results
|